Total_Precipitation_Accumulation
1.31 1.29 1.23 1.28 1.16 1.06 1.12 1.21 1.27 1.33 1.24 1.10 1.05 1.07 1.17 1.11 1.16 1.36 1.76 2.31 2.84 3.32 3.55 3.45 3.34 3.24 3.22 3.22 3.40 3.55 3.67 3.84 3.70 3.53 3.36 3.17 3.20 3.21 2.84 2.80 2.97 3.24 3.58
1.34 1.39 1.34 1.27 1.20 1.10 1.12 1.30 1.29 1.32 1.31 1.25 1.10 1.12 1.16 1.11 1.12 1.18 1.36 1.80 2.23 2.74 3.36 3.74 3.59 3.37 3.17 3.13 3.14 3.23 3.46 3.54 3.22 3.12 3.13 3.15 3.28 3.36 2.98 2.82 2.80 2.84 3.15
1.18 1.26 1.28 1.22 1.19 1.19 1.21 1.27 1.32 1.40 1.33 1.24 1.20 1.18 1.17 1.12 1.07 1.12 1.07 1.23 1.41 1.93 2.60 3.13 3.43 3.45 3.32 3.19 3.10 3.18 3.38 3.21 2.92 2.98 3.14 3.16 3.17 3.23 3.19 3.01 2.80 2.73 2.89
1.26 1.26 1.29 1.27 1.29 1.32 1.31 1.35 1.43 1.44 1.41 1.39 1.34 1.30 1.18 1.16 1.11 1.10 1.04 1.04 1.13 1.22 1.59 2.04 2.52 2.94 3.18 3.26 3.42 3.59 3.44 3.04 2.76 2.71 2.88 2.77 2.70 2.82 2.96 2.93 2.71 2.54 2.47
1.36 1.47 1.49 1.49 1.44 1.47 1.47 1.42 1.45 1.38 1.39 1.40 1.32 1.34 1.29 1.25 1.19 1.06 1.08 1.05 1.07 1.05 1.19 1.35 1.61 1.93 2.33 2.81 3.41 3.73 3.32 2.99 2.77 2.56 2.50 2.43 2.47 2.57 2.60 2.46 2.37 2.26 2.25
1.61 1.79 1.85 1.75 1.72 1.71 1.70 1.63 1.68 1.58 1.46 1.49 1.37 1.35 1.32 1.24 1.27 1.24 1.21 1.14 1.18 1.13 1.13 1.15 1.24 1.23 1.46 2.00 2.80 3.30 3.21 3.02 2.81 2.67 2.46 2.39 2.49 2.59 2.53 2.42 2.34 2.34 2.37
1.93 2.07 1.98 2.06 2.06 1.93 1.92 1.98 2.03 1.99 1.80 1.65 1.71 1.60 1.35 1.17 1.25 1.22 1.23 1.28 1.28 1.36 1.37 1.26 1.24 1.24 1.19 1.43 2.04 2.76 3.06 3.00 2.98 2.82 2.67 2.57 2.49 2.50 2.49 2.43 2.41 2.44 2.54
2.14 2.17 2.24 2.33 2.35 2.36 2.29 2.18 2.30 2.46 2.19 1.94 2.07 2.35 1.96 1.62 1.27 1.04 1.16 1.25 1.31 1.54 1.57 1.36 1.19 1.17 1.23 1.38 1.39 1.84 2.31 2.69 2.92 2.99 2.88 2.75 2.63 2.64 2.69 2.54 2.42 2.50 2.55
2.36 2.38 2.43 2.49 2.50 2.36 2.36 2.47 2.60 2.95 2.75 2.37 2.17 2.47 2.32 2.02 1.71 1.27 1.15 1.25 1.35 1.49 1.58 1.61 1.49 1.38 1.31 1.38 1.41 1.30 1.54 2.04 2.53 2.91 3.00 2.95 2.81 3.00 3.18 2.91 2.56 2.42 2.28
2.35 2.43 2.42 2.40 2.36 2.31 2.39 2.46 2.52 2.95 3.17 2.88 2.51 2.10 1.88 1.86 1.99 1.73 1.29 1.24 1.35 1.37 1.47 1.54 1.49 1.57 1.51 1.54 1.58 1.37 1.29 1.64 2.10 2.64 3.04 3.36 3.16 2.97 2.93 3.02 2.82 2.47 2.21
2.25 2.25 2.23 2.31 2.31 2.33 2.40 2.58 2.71 2.99 3.05 3.06 2.86 2.61 2.37 2.06 1.75 1.85 1.81 1.54 1.47 1.37 1.44 1.56 1.58 1.69 1.72 1.75 1.92 1.69 1.42 1.35 1.61 2.12 2.73 3.33 3.54 3.26 2.92 2.85 2.81 2.62 2.32
2.20 2.11 2.05 2.11 2.23 2.36 2.41 2.51 2.68 2.96 3.10 3.20 3.10 2.80 2.69 2.54 2.27 2.16 1.93 1.79 1.75 1.50 1.45 1.50 1.53 1.67 1.84 1.91 1.90 2.05 1.71 1.32 1.28 1.62 2.00 2.67 3.36 3.52 3.31 3.16 3.08 2.98 2.73
1.87 1.92 1.97 2.04 2.17 2.26 2.33 2.46 2.60 2.67 2.82 3.09 3.10 2.92 2.70 2.52 2.51 2.38 2.28 1.99 1.79 1.54 1.52 1.52 1.49 1.54 1.58 1.86 1.98 2.09 1.75 1.39 1.19 1.26 1.48 1.83 2.37 2.94 3.23 3.22 3.22 3.35 3.36
1.78 1.72 1.75 1.82 2.03 2.21 2.29 2.39 2.41 2.41 2.48 2.69 2.70 2.77 2.73 2.48 2.44 2.36 2.37 2.50 2.19 1.91 1.72 1.51 1.42 1.47 1.51 1.69 2.00 2.09 1.64 1.49 1.26 1.17 1.20 1.41 1.63 1.87 2.31 2.83 3.16 3.38 3.59
1.56 1.51 1.55 1.58 1.69 1.89 2.13 2.27 2.24 2.19 2.17 2.34 2.41 2.51 2.65 2.69 2.58 2.49 2.49 2.61 2.60 2.32 2.05 1.77 1.55 1.43 1.49 1.60 2.00 1.90 1.66 1.57 1.48 1.29 1.15 1.21 1.29 1.43 1.62 1.99 2.30 2.54 2.74
1.38 1.31 1.33 1.45 1.61 1.70 1.86 2.06 2.14 2.09 2.11 2.21 2.33 2.46 2.61 2.75 2.77 2.55 2.53 2.54 2.45 2.42 2.24 1.83 1.56 1.48 1.55 1.53 1.89 1.88 1.80 1.84 1.61 1.46 1.37 1.29 1.33 1.32 1.38 1.56 1.62 1.75 1.76
1.22 1.21 1.36 1.44 1.52 1.62 1.78 2.01 2.16 2.16 2.10 2.11 2.11 2.21 2.42 2.55 2.76 2.70 2.60 2.54 2.43 2.32 2.21 1.97 1.72 1.56 1.63 1.67 1.78 1.90 1.87 1.77 1.58 1.57 1.43 1.32 1.31 1.34 1.34 1.42 1.53 1.52 1.45
0.96 1.08 1.22 1.26 1.31 1.34 1.54 1.83 2.02 2.07 2.05 1.94 1.89 2.00 2.25 2.45 2.67 2.77 2.72 2.58 2.52 2.39 2.30 2.26 2.08 1.85 1.73 1.74 1.90 2.02 1.97 1.89 1.81 1.84 1.69 1.50 1.42 1.36 1.35 1.34 1.40 1.52 1.52
1.01 1.11 1.16 1.21 1.25 1.31 1.35 1.48 1.68 1.81 1.81 1.75 1.74 1.76 1.79 1.99 2.29 2.49 2.52 2.57 2.60 2.57 2.57 2.45 2.28 2.17 2.03 1.83 1.95 2.04 2.03 2.05 1.94 2.01 2.00 1.86 1.73 1.61 1.50 1.44 1.42 1.44 1.51
1.04 1.12 1.14 1.20 1.28 1.32 1.33 1.36 1.39 1.46 1.50 1.58 1.62 1.61 1.65 1.69 1.93 2.13 2.23 2.40 2.62 2.67 2.74 2.70 2.46 2.32 2.24 2.02 2.08 2.20 2.29 2.23 2.14 2.01 2.05 1.97 1.92 1.82 1.70 1.56 1.46 1.41 1.42
0.95 1.04 1.09 1.10 1.15 1.24 1.34 1.41 1.29 1.26 1.34 1.42 1.41 1.35 1.37 1.55 1.76 1.90 1.88 2.15 2.50 2.72 2.75 2.74 2.59 2.54 2.32 2.13 1.99 1.97 2.14 2.37 2.38 2.32 2.25 2.02 1.92 1.77 1.75 1.75 1.58 1.41 1.40
0.93 0.97 0.92 0.95 1.03 1.06 1.34 1.37 1.21 1.13 1.18 1.27 1.34 1.32 1.21 1.23 1.37 1.49 1.55 1.68 1.93 2.17 2.50 2.72 2.66 2.56 2.26 2.10 2.06 2.02 2.03 2.15 2.34 2.29 2.30 2.33 2.25 2.16 2.03 1.92 1.90 1.75 1.62
0.90 0.92 0.89 0.88 0.91 1.04 1.18 1.08 1.12 1.06 1.09 1.15 1.24 1.33 1.24 1.13 1.29 1.32 1.45 1.54 1.49 1.55 1.88 2.27 2.45 2.46 2.44 2.32 2.23 2.07 2.01 2.06 2.11 2.16 2.34 2.39 2.36 2.36 2.27 2.26 2.35 2.15 1.94
0.87 0.88 0.94 0.94 0.93 1.01 1.06 0.97 1.06 1.01 0.99 1.04 1.17 1.28 1.33 1.26 1.32 1.45 1.40 1.40 1.33 1.31 1.57 1.59 1.82 2.23 2.40 2.46 2.36 2.35 2.48 2.43 2.24 2.13 2.17 2.23 2.11 2.15 2.21 2.23 2.39 2.28 2.13
0.89 0.93 0.98 0.98 0.91 0.92 1.03 0.98 1.02 0.98 0.97 0.99 1.01 1.10 1.20 1.16 1.41 1.56 1.44 1.54 1.53 1.41 1.62 1.73 1.80 1.90 2.10 2.30 2.35 2.31 2.34 2.40 2.33 2.21 2.02 1.93 1.84 1.88 2.02 2.04 2.05 2.15 2.13
0.72 0.85 0.89 0.90 0.92 0.90 1.15 1.11 1.09 0.97 0.98 1.06 1.08 1.05 1.24 1.27 1.45 1.45 1.30 1.50 1.55 1.50 1.48 1.53 1.53 1.56 1.52 1.72 2.01 2.06 2.24 2.29 2.19 2.10 1.83 1.74 1.69 1.78 1.89 1.72 1.55 1.54 1.56